This is the latest recevied weather packets stored in our database for station/object PA3TA-2. If no packets are shown the sender has not sent any weather packets the latest 10 day(s).
| Time | Temp. | Humidity | Pressure | Rain* | Wind** | Luminosity | Snow |
|---|---|---|---|---|---|---|---|
| 1788003253 | 25.56° C | 57% | 1011.8 hPa | 0 mm | - | - | - |
| 1788002950 | 25.56° C | 57% | 1011.8 hPa | 0 mm | - | - | - |
| 1788002646 | 25.56° C | 57% | 1011.9 hPa | 0 mm | - | - | - |
| 1788002343 | 26.11° C | 57% | 1011.8 hPa | 0 mm | - | - | - |
| 1788002040 | 26.11° C | 58% | 1011.9 hPa | 0 mm | - | - | - |
| 1788001737 | 25.56° C | 59% | 1012 hPa | 0 mm | - | - | - |
| 1788001433 | 26.11° C | 59% | 1011.9 hPa | 0 mm | - | - | - |
| 1788001131 | 26.11° C | 58% | 1012 hPa | 0 mm | - | - | - |
| 1788000816 | 26.11° C | 58% | 1012.1 hPa | 0 mm | - | - | - |
| 1788000512 | 26.11° C | 59% | 1012 hPa | 0 mm | - | - | - |
| 1788000209 | 25.56° C | 60% | 1012.2 hPa | 0 mm | - | - | - |
| 1787999906 | 25.56° C | 60% | 1012.1 hPa | 0 mm | - | - | - |
| 1787999603 | 25.56° C | 61% | 1012.2 hPa | 0 mm | - | - | - |
| 1787999299 | 25° C | 61% | 1012.2 hPa | 0 mm | - | - | - |
| 1787998996 | 25° C | 60% | 1012.2 hPa | 0 mm | - | - | - |
| 1787998693 | 25° C | 60% | 1012.4 hPa | 0 mm | - | - | - |
| 1787998378 | 25° C | 61% | 1012.3 hPa | 0 mm | - | - | - |
| 1787998075 | 25° C | 62% | 1012.3 hPa | 0 mm | - | - | - |
| 1787997772 | 24.44° C | 63% | 1012.2 hPa | 0 mm | - | - | - |
| 1787997468 | 24.44° C | 64% | 1012.2 hPa | 0 mm | - | - | - |
| 1787997165 | 24.44° C | 65% | 1012.3 hPa | 0 mm | - | - | - |
| 1787996862 | 23.89° C | 65% | 1012.3 hPa | 0 mm | - | - | - |
| 1787995334 | 23.33° C | 70% | 1012.4 hPa | 0 mm | - | - | - |
| 1787995031 | 22.78° C | 71% | 1012.4 hPa | 0 mm | - | - | - |
| 1787994728 | 22.22° C | 71% | 1012.5 hPa | 0 mm | - | - | - |
* Rain since midnight (hover to see other rain measurements)
** Current wind speed in m/s (hover to see current wind gust speed)